DELTA 1 DEB, 7054

Orbit data source: Space-Track

DELTA 1 DEB, 7054 is space debris in SSO originally from a launch on Tue, 06 Nov 1973 UTC launched from the Air Force Western Test Range (AFWTR). Debris objects in space refer to the collection of defunct objects orbiting the Earth. Examples of debris include non-operational satellites, rocket bodies, and fragments generated from explosions, collisions, or faulty payload assembly.

Loading next visibility...
Identifier
7054, 1973-086AW
Orbit
SSO
Country
Flag of USUS
Related business
Manufacturer
Unknown
Mission
Spacecraft
Bus & Motor
Unknown
Mass
Unknown
Launch date (UTC)
1973-11-06 (53 years ago)
Launch vehicle
Unknown
Launch site
Air Force Western Test Range (AFWTR)
Object type
Payload
Rocket body
Debris
Shape & HBR
Unknown shape, 0.3 m
Radar Cross Section
Medium (>0.1 m² and <1 m²)

Expand to show TLE details & history
Last TLE update: 17 hours ago

TLE from 17 hours ago
0 DELTA 1 DEB
1  7054U 73086AW  26209.09879161 -.00000156  00000-0 -26583-3 0  9991
2  7054 101.5138 252.2565 0313704 167.5308 253.4737 13.03835246505783
Epoch: 2026-07-28T02:22Z
TLE epoch observation values (Epoch: 2026-07-28T02:22:15.595Z)
Latitude
55.92031°
Longitude
-106.51497°
Altitude
1,331.095 km
Speed
7.162 km/s
True Right ascension
15h 39m 17s
True Declination
55° 46' 21"
Sunlit
Object was in daylight at epoch
Visualization orbit readout
Latitude
Unknown
Longitude
Unknown
Altitude
Unknown
Speed
Unknown
Apparent Right ascension
Unknown
Apparent Declination
Unknown
Sunlit
N/A
Visualization observer readout
Local Sidereal Time
08:42:51
Azimuth
Unknown
Elevation
Unknown
Doppler factor
Unknown
Orbital elements
Apogee altitude
1,483.686 km
Perigee altitude
1,005.432 km
Semi-major axis
7,622.696 km
Eccentricity
0.03137
Inclination
101.5138°
RAAN
252.2565°
Arg. of periapsis
167.5308°
True anomaly
250.06746°
Mean anomaly
253.4737°
Eccentric anomaly
251.76656°
Mean motion
3.26122 °/min
Orbital period
110.39 mins
BSTAR
-0.00026583
Loading maneuver chart data...
Computing Atmospheric mass density...
Loading historical data...
Loading historical data...
Loading historical data...
Loading historical data...
Loading historical data...
Loading historical data...
Loading historical data...

Documentation

Showing up to 5 results
|